Date String (YYYY-MM-DD hh:mm:ss) UTC,Instrument flags,Ambient pressure (hPa),Sample flow (lpm),Bypass flow (lpm),Sample temperature (°C),Ambient temperature (°C),ASC tube jacket temperature (°C),LED temperature (°C),Box temperature (°C),Sample RH (%),Span deviation,Mass concentration (μg/m³),Mass concentration (μg/m³),Mass concentration (μg/m³)
DateTimeUTC,F1_M11,P_M11,Q1_M11,Q2_M11,T1_M11,T2_M11,T3_M11,T4_M11,T5_M11,U1_M11,ZSPAN_M11,X0_M11,X2_M11,X1_M11
2022-12-20 07:00:00,,0829.4,5.00,0.00,21.5,19.5,00.0,30.5,23.1,05.7,0000.0,0004.40,0002.74,0002.24
2022-12-20 07:01:00,,0829.3,5.03,0.00,21.5,19.4,00.0,30.5,23.0,05.7,0000.0,0004.47,0002.76,0002.26
2022-12-20 07:02:00,,0829.3,4.98,0.00,21.4,19.4,00.0,30.5,23.0,05.7,0000.0,0004.41,0002.72,0002.21
2022-12-20 07:03:00,,0829.5,4.98,0.00,21.4,19.4,00.0,30.5,22.9,05.8,0000.0,0004.25,0002.68,0002.20
2022-12-20 07:04:00,,0829.3,5.02,0.00,21.3,19.2,00.0,30.4,22.8,05.9,0000.0,0004.15,0002.63,0002.18
2022-12-20 07:05:00,,0829.3,5.02,0.00,21.3,19.2,00.0,30.4,22.7,06.0,0000.0,0003.96,0002.52,0002.07
2022-12-20 07:06:00,,0829.3,4.96,0.00,21.3,20.3,00.0,30.3,23.0,06.0,0000.0,0003.37,0002.35,0001.95
2022-12-20 07:07:00,,0829.3,5.04,0.00,21.4,21.4,00.0,30.3,23.3,06.0,0000.0,0003.37,0002.32,0001.92
2022-12-20 07:08:00,,0829.2,4.98,0.00,21.5,21.2,00.0,30.3,23.3,05.9,0000.0,0003.87,0002.28,0001.90
2022-12-20 07:09:00,,0829.2,4.96,0.00,21.5,20.6,00.0,30.3,23.1,05.7,0000.0,0004.17,0002.29,0001.92
2022-12-20 07:10:00,,0829.3,5.03,0.00,21.4,20.1,00.0,30.3,23.0,05.9,0000.0,0004.21,0002.30,0001.93
2022-12-20 07:11:00,,0829.3,5.01,0.00,21.3,19.7,00.0,30.3,22.9,06.0,0000.0,0004.13,0002.24,0001.88
2022-12-20 07:12:00,,0829.1,4.96,0.00,21.3,19.4,00.0,30.3,22.7,06.1,0000.0,0004.00,0002.18,0001.83
2022-12-20 07:13:00,,0829.2,5.02,0.00,21.2,19.3,00.0,30.3,22.7,06.1,0000.0,0003.94,0002.14,0001.77
2022-12-20 07:14:00,,0829.1,5.02,0.00,21.1,19.1,00.0,30.3,22.6,06.0,0000.0,0003.91,0002.11,0001.74
2022-12-20 07:15:00,,0829.1,4.97,0.00,21.1,19.1,00.0,30.2,22.5,06.1,0000.0,0003.94,0002.10,0001.72
2022-12-20 07:16:00,,0829.2,5.00,0.00,21.0,19.0,00.0,30.2,22.5,06.1,0000.0,0003.84,0002.07,0001.72
2022-12-20 07:17:00,,0829.2,5.04,0.00,21.0,19.2,00.0,30.1,22.5,05.9,0000.0,0003.75,0002.08,0001.74
2022-12-20 07:18:00,,0829.0,4.97,0.00,21.1,20.5,00.0,30.1,22.8,05.9,0000.0,0003.78,0002.11,0001.76
2022-12-20 07:19:00,,0829.1,4.99,0.00,21.2,21.3,00.0,30.1,23.1,05.9,0000.0,0003.22,0002.12,0001.76
2022-12-20 07:20:00,,0829.1,5.04,0.00,21.3,20.9,00.0,30.1,23.1,05.7,0000.0,0003.02,0002.15,0001.78
2022-12-20 07:21:00,,0829.0,4.97,0.00,21.2,20.4,00.0,30.1,22.9,05.6,0000.0,0003.50,0002.43,0001.99
2022-12-20 07:22:00,,0829.0,5.04,0.00,21.2,19.8,00.0,30.1,22.7,05.7,0000.0,0003.92,0002.71,0002.18
2022-12-20 07:23:00,,0828.9,4.95,0.00,21.1,19.4,00.0,30.1,22.6,06.1,0000.0,0004.08,0002.81,0002.26
2022-12-20 07:24:00,,0828.8,5.02,0.00,21.0,19.1,00.0,30.1,22.5,06.4,0000.0,0004.06,0002.79,0002.25
2022-12-20 07:25:00,,0828.8,5.02,0.00,21.0,19.0,00.0,30.1,22.4,06.5,0000.0,0004.00,0002.74,0002.20
2022-12-20 07:26:00,,0828.9,4.96,0.00,20.9,19.0,00.0,30.0,22.3,06.6,0000.0,0003.86,0002.67,0002.16
2022-12-20 07:27:00,,0828.8,5.01,0.00,20.9,18.9,00.0,30.0,22.3,06.6,0000.0,0003.81,0002.63,0002.13
2022-12-20 07:28:00,,0828.9,5.02,0.00,20.9,19.6,00.0,29.9,22.4,06.6,0000.0,0003.68,0002.55,0002.06
2022-12-20 07:29:00,,0828.8,4.99,0.00,21.0,21.1,00.0,29.9,22.8,06.6,0000.0,0003.54,0002.47,0002.00
2022-12-20 07:30:00,,0828.8,4.98,0.00,21.1,21.5,00.0,29.9,23.0,06.6,0000.0,0003.43,0002.38,0001.93
2022-12-20 07:31:00,,0828.9,4.97,0.00,21.2,21.0,00.0,30.0,23.0,06.6,0000.0,0003.36,0002.22,0001.79
2022-12-20 07:32:00,,0828.9,5.05,0.00,21.1,20.5,00.0,30.0,22.9,06.6,0000.0,0002.67,0001.81,0001.50
2022-12-20 07:33:00,,0828.9,4.97,0.00,21.1,20.1,00.0,30.0,22.8,06.7,0000.0,0002.16,0001.47,0001.26
2022-12-20 07:34:00,,0828.8,5.04,0.00,21.1,19.8,00.0,30.0,22.6,06.7,0000.0,0001.96,0001.34,0001.15
2022-12-20 07:35:00,,0828.9,4.96,0.00,21.0,19.5,00.0,30.0,22.6,06.6,0000.0,0001.87,0001.31,0001.14
2022-12-20 07:36:00,,0828.9,5.02,0.00,21.0,19.3,00.0,30.0,22.5,06.5,0000.0,0001.89,0001.31,0001.14
2022-12-20 07:37:00,,0828.9,5.03,0.00,20.9,19.2,00.0,30.0,22.5,06.6,0000.0,0001.93,0001.33,0001.14
2022-12-20 07:38:00,,0828.9,4.95,0.00,20.9,19.0,00.0,29.9,22.4,06.7,0000.0,0001.89,0001.32,0001.13
2022-12-20 07:39:00,,0828.8,5.02,0.00,20.8,18.9,00.0,29.9,22.3,06.7,0000.0,0001.95,0001.34,0001.13
2022-12-20 07:40:00,,0828.9,5.03,0.00,20.8,19.2,00.0,29.9,22.4,06.7,0000.0,0001.97,0001.35,0001.12
2022-12-20 07:41:00,,0828.9,4.99,0.00,20.9,20.6,00.0,29.8,22.7,06.6,0000.0,0001.95,0001.35,0001.13
2022-12-20 07:42:00,,0828.9,4.99,0.00,21.1,21.4,00.0,29.8,23.0,06.7,0000.0,0001.77,0001.36,0001.13
2022-12-20 07:43:00,,0828.9,4.98,0.00,21.1,21.0,00.0,29.9,22.9,06.7,0000.0,0001.80,0001.37,0001.12
2022-12-20 07:44:00,,0828.8,5.05,0.00,21.1,20.5,00.0,29.9,22.8,06.7,0000.0,0001.91,0001.41,0001.13
2022-12-20 07:45:00,,0828.8,4.97,0.00,21.1,20.1,00.0,29.9,22.8,06.7,0000.0,0002.10,0001.45,0001.14
2022-12-20 07:46:00,,0829.1,5.02,0.00,21.1,19.9,00.0,29.9,22.7,06.7,0000.0,0002.08,0001.43,0001.15
2022-12-20 07:47:00,,0829.2,4.97,0.00,21.0,19.7,00.0,30.0,22.6,06.7,0000.0,0002.18,0001.46,0001.15
2022-12-20 07:48:00,,0829.2,5.03,0.00,21.0,19.4,00.0,30.0,22.6,06.7,0000.0,0002.25,0001.47,0001.16
2022-12-20 07:49:00,,0829.3,4.96,0.00,21.0,19.3,00.0,29.9,22.5,06.6,0000.0,0002.33,0001.51,0001.16
2022-12-20 07:50:00,,0829.2,5.03,0.00,21.0,19.3,00.0,29.9,22.6,06.6,0000.0,0002.57,0001.49,0001.17
2022-12-20 07:51:00,,0829.4,4.99,0.00,21.0,19.5,00.0,29.9,22.7,06.5,0000.0,0003.60,0001.68,0001.32
2022-12-20 07:52:00,,0829.2,5.01,0.00,21.0,19.6,00.0,29.9,22.7,06.3,0000.0,0006.17,0002.19,0001.62
2022-12-20 07:53:00,,0829.3,5.03,0.00,21.0,19.6,00.0,29.9,22.8,06.4,0000.0,0007.12,0002.67,0001.89
2022-12-20 07:54:00,,0828.9,4.97,0.00,21.0,19.8,00.0,29.9,22.8,06.4,0000.0,0007.55,0003.00,0002.09
2022-12-20 07:55:00,,0829.2,5.03,0.00,21.1,20.8,00.0,29.9,23.0,06.4,0000.0,0007.78,0003.16,0002.24
2022-12-20 07:56:00,,0829.1,4.96,0.00,21.3,21.9,00.0,29.9,23.3,06.4,0000.0,0008.57,0003.19,0002.27
2022-12-20 07:57:00,,0829.1,5.04,0.00,21.4,21.9,00.0,29.9,23.4,06.4,0000.0,0008.99,0003.23,0002.30
2022-12-20 07:58:00,,0829.3,4.99,0.00,21.4,21.6,00.0,30.0,23.4,06.3,0000.0,0008.96,0003.22,0002.30
2022-12-20 07:59:00,,0829.3,4.97,0.00,21.4,21.2,00.0,30.1,23.3,06.3,0000.0,0008.92,0003.21,0002.31
